Tracking 19489 objects as of 22-Jan-2019
HD Live streaming from Space Station
objects crossing your sky now

FENGYUN 1B

Track FENGYUN 1B now!
10-day predictions
FENGYUN 1B is classified as:


NORAD ID: 20788
Int'l Code: 1990-081A
Perigee: 880.6 km
Apogee: 902.7 km
Inclination: 98.8 °
Period: 102.7 minutes
Semi major axis: 7262 km
RCS: 3.0595 m2 (large)
Launch date: September 3, 1990
Source: People's Republic of China (PRC)
Launch site: Taiyaun Space Center, China (TSC)
aabbcc
Your satellite tracking list
Your tracking list is empty




NASA's NSSDC Master Catalog

Two Line Element Set (TLE):
1 20788U 90081A   19021.58263292 -.00000252 +00000-0 -13539-3 0  9998
2 20788 098.8043 040.4713 0015217 317.4048 042.5937 14.02682673452483
Source of the keplerian elements: AFSPC